Weather reports worldwide

Advertisment
Chadron, ne, United States of America (2074327): temperature & dewpoint: 28.03.2020 17:00:00 - 03.04.2020 17:00:00 (MDT)Chadron, ne, United States of America (2074327): wind speed & gusts: 28.03.2020 17:00:00 - 03.04.2020 17:00:00 (MDT)Chadron, ne, United States of America (2074327): wind direction: 28.03.2020 17:00:00 - 03.04.2020 17:00:00 (MDT)Chadron, ne, United States of America (2074327): reduced air pressure: 28.03.2020 17:00:00 - 03.04.2020 17:00:00 (MDT)Chadron, ne, United States of America (2074327): visibility: 28.03.2020 17:00:00 - 03.04.2020 17:00:00 (MDT)Chadron, ne, United States of America (2074327): precipitation: 28.03.2020 17:00:00 - 03.04.2020 17:00:00 (MDT)
Date & Time tt [°C] td [°C] ff [km/h] ff [kn] fx [km/h] fx [kn] dd ppp [hPa] vv [km] rr [mm]
03.04.2020 17:00:00 5,0 -5,6 15 8 - - E 1025,0 16 -
03.04.2020 16:00:00 3,9 -6,1 0 0 - - N 1025,6 16 -
03.04.2020 15:00:00 1,7 -6,1 0 0 - - N 1027,1 16 -
03.04.2020 14:00:00 -1,1 -7,2 5 3 - - SE 1028,6 16 -
03.04.2020 13:00:00 -4,4 -9,4 0 0 - - N 1030,2 16 -
03.04.2020 12:00:00 -6,7 -10,0 9 5 - - S 1031,3 16 -
03.04.2020 11:00:00 -9,4 -12,2 5 3 - - SSW 1032,3 16 -
03.04.2020 10:00:00 -11,1 -13,9 0 0 - - N 1032,7 16 -
03.04.2020 09:00:00 -13,3 -14,4 0 0 - - N 1032,2 13 -
03.04.2020 08:00:00 -17,8 -18,3 0 0 - - N 1033,2 16 -
03.04.2020 07:00:00 -22,2 -24,4 5 3 - - SSW 1033,6 16 -
03.04.2020 06:00:00 -22,8 -25,0 0 0 - - N 1033,2 16 -
03.04.2020 05:00:00 -21,1 -23,3 0 0 - - N 1032,6 16 -
03.04.2020 04:00:00 -18,9 -21,1 5 3 - - SW 1032,0 16 -
03.04.2020 03:00:00 -18,9 -21,1 15 8 - - WSW 1031,8 16 -
03.04.2020 02:00:00 -18,3 -20,6 13 7 - - SW 1031,7 16 -
03.04.2020 01:00:00 -18,9 -20,6 9 5 - - W 1031,9 16 -
03.04.2020 00:00:00 -18,9 -20,6 8 4 - - WSW 1032,0 16 -
02.04.2020 23:00:00 -17,2 -18,3 5 3 - - - 1032,1 10 -
02.04.2020 22:00:00 -16,1 -17,8 5 3 - - - 1031,6 10 0,0
02.04.2020 21:00:00 -10,6 -12,2 0 0 - - N 1030,5 6 0,0
02.04.2020 20:00:00 -9,4 -11,7 8 4 - - E 1029,7 4,0 0,0
02.04.2020 19:00:00 -9,4 -11,7 8 4 - - ENE 1029,2 2,0 0,0
02.04.2020 18:00:00 -8,9 -11,1 9 5 - - N 1028,4 1,6 0,0
02.04.2020 17:00:00 -8,3 -10,6 15 8 - - NNE 1027,0 2,0 0,0
02.04.2020 16:00:00 -7,8 -9,4 13 7 - - NNW 1026,3 0,4 0,0
02.04.2020 15:00:00 -7,2 -10,0 13 7 - - NNE 1025,7 0,4 0,0
02.04.2020 14:00:00 -7,2 -11,7 16 9 - - NE 1025,8 15 0,0
02.04.2020 13:00:00 -7,8 -11,7 18 10 - - NNE 1026,6 10 0,0
02.04.2020 12:00:00 -8,9 -12,2 18 10 - - NNE 1026,4 8 0,0
02.04.2020 11:00:00 -9,4 -12,2 24 13 - - NE 1025,6 11 0,0
02.04.2020 10:00:00 -8,9 -11,1 26 14 - - NNE 1024,8 2,4 0,0
02.04.2020 09:00:00 -8,9 -11,7 28 15 - - NNE 1024,9 2,4 0,0
02.04.2020 08:00:00 -8,9 -11,1 18 10 - - N 1024,0 4,0 0,0
02.04.2020 07:00:00 -8,9 -10,6 18 10 - - NNE 1022,6 4,0 0,0
02.04.2020 06:00:00 -8,9 -10,6 22 12 - - NNE 1021,2 13 0,0
02.04.2020 05:00:00 -8,3 -10,0 26 14 - - NNE 1020,9 4,8 0,0
02.04.2020 04:00:00 -8,3 -10,0 34 18 - - N 1019,9 4,8 0,0
02.04.2020 03:00:00 -7,2 -9,4 24 13 - - NNE 1017,9 11 -
02.04.2020 02:00:00 -6,7 -8,9 26 14 - - NE 1016,7 16 0,0
02.04.2020 01:00:00 -6,7 -8,3 34 18 48 26 NE 1016,9 6 0,0
02.04.2020 00:00:00 -6,1 -8,3 29 16 48 26 NE 1017,3 8 0,0
01.04.2020 23:00:00 -5,6 -7,8 31 17 - - NE 1017,2 15 0,0
01.04.2020 22:00:00 -5,0 -7,2 29 16 - - NNE 1017,7 6 0,0
01.04.2020 21:00:00 -3,3 -6,1 28 15 50 27 N 1016,6 6 0,0
01.04.2020 20:00:00 -1,7 -5,6 28 15 52 28 NNE 1015,1 6 0,0
01.04.2020 19:00:00 0,0 -4,4 35 19 52 28 NNE 1013,3 16 0,0
01.04.2020 18:00:00 2,2 -2,8 39 21 55 30 NE 1012,3 16 0,0
01.04.2020 17:00:00 3,9 0,6 42 23 57 31 NNE 1011,1 15 0,0
01.04.2020 16:00:00 7,8 2,2 41 22 55 30 NNE 1010,1 16 -
01.04.2020 15:00:00 11,7 3,9 35 19 52 28 NE 1008,4 16 -
01.04.2020 14:00:00 12,2 3,9 28 15 - - NE 1007,7 10 -
01.04.2020 13:00:00 15,0 2,8 34 18 50 27 NNW 1006,3 16 0,0
01.04.2020 12:00:00 14,4 3,3 22 12 - - WNW 1007,0 16 0,0
01.04.2020 11:00:00 14,4 3,3 9 5 - - N 1006,7 16 0,0
01.04.2020 10:00:00 9,4 3,9 13 7 - - W 1008,1 16 -
01.04.2020 09:00:00 7,2 3,3 9 5 - - S 1006,8 16 -
01.04.2020 08:00:00 5,6 3,3 11 6 - - WSW 1006,6 16 -
01.04.2020 07:00:00 5,6 2,2 8 4 - - - 1005,9 16 0,0
01.04.2020 06:00:00 3,9 1,7 16 9 - - SSE 1005,6 16 -
01.04.2020 05:00:00 3,9 2,2 0 0 - - N 1006,3 16 -
01.04.2020 04:00:00 3,3 1,7 0 0 - - N 1005,6 16 -
01.04.2020 03:00:00 3,9 1,7 5 3 - - ENE 1005,7 16 0,0
01.04.2020 02:00:00 3,3 0,6 8 4 - - NE 1006,5 16 -
01.04.2020 01:00:00 7,2 1,7 9 5 - - NE 1007,9 16 0,0
01.04.2020 00:00:00 5,0 0,6 5 3 - - N 1008,1 16 -
31.03.2020 23:00:00 3,3 0,0 0 0 - - N 1008,8 16 -
31.03.2020 22:00:00 3,9 0,0 0 0 - - N 1009,3 16 -
31.03.2020 21:00:00 6,1 0,6 0 0 - - N 1009,2 16 -
31.03.2020 20:00:00 11,7 0,0 8 4 - - NW 1008,6 16 -
31.03.2020 19:00:00 15,6 0,6 18 10 - - NW 1008,1 16 -
31.03.2020 18:00:00 18,9 -2,2 28 15 54 29 W 1007,0 16 -
31.03.2020 17:00:00 18,9 -2,8 21 11 52 28 WNW 1006,9 16 -
31.03.2020 16:00:00 19,4 -3,3 34 18 50 27 W 1007,2 16 -
31.03.2020 15:00:00 20,6 -4,4 34 18 - - W 1007,4 16 -
31.03.2020 14:00:00 20,6 -3,9 34 18 54 29 W 1008,1 16 -
31.03.2020 13:00:00 20,0 -3,9 35 19 54 29 W 1008,9 16 -
31.03.2020 12:00:00 18,3 -3,3 34 18 52 28 WNW 1009,4 16 -
31.03.2020 11:00:00 17,2 -2,2 41 22 52 28 W 1010,4 16 -
31.03.2020 10:00:00 14,4 -1,1 26 14 - - WSW 1011,5 16 -
31.03.2020 09:00:00 10,6 0,0 26 14 - - SW 1012,4 16 -
31.03.2020 08:00:00 5,6 0,0 11 6 - - SW 1013,8 16 -
31.03.2020 07:00:00 2,2 -1,7 13 7 - - WSW 1013,8 16 -
31.03.2020 06:00:00 2,8 -1,1 18 10 - - SW 1013,7 16 -
31.03.2020 05:00:00 2,2 -0,6 13 7 - - SW 1013,9 16 -
31.03.2020 04:00:00 1,7 -1,1 9 5 - - S 1014,1 16 -
31.03.2020 03:00:00 1,1 -0,6 9 5 - - SSW 1014,9 16 -
31.03.2020 02:00:00 1,1 0,0 8 4 - - SSE 1015,4 16 -
31.03.2020 01:00:00 4,4 2,2 0 0 - - N 1015,3 16 -
31.03.2020 00:00:00 6,7 3,9 21 11 - - SSW 1015,3 16 -
30.03.2020 23:00:00 6,7 3,9 26 14 - - SSE 1015,2 16 -
30.03.2020 22:00:00 7,2 3,9 29 16 - - SSE 1015,8 16 -
30.03.2020 21:00:00 7,8 3,9 26 14 - - SSE 1016,1 16 -
30.03.2020 20:00:00 7,8 3,3 13 7 - - SSE 1016,0 16 -
30.03.2020 19:00:00 11,1 3,3 26 14 - - SE 1015,6 16 -
30.03.2020 18:00:00 12,8 4,4 29 16 - - SSE 1015,0 16 -
30.03.2020 17:00:00 12,8 3,9 34 18 - - SSE 1014,9 16 -
30.03.2020 16:00:00 16,1 3,9 29 16 - - SSE 1013,8 16 -
30.03.2020 15:00:00 16,7 2,8 13 7 - - SE 1013,7 16 -
30.03.2020 14:00:00 15,6 2,8 21 11 - - SE 1014,6 16 -
30.03.2020 13:00:00 14,4 1,7 15 8 - - SSW 1015,7 16 -
30.03.2020 12:00:00 14,4 0,0 9 5 - - - 1016,0 16 -
30.03.2020 11:00:00 13,9 -0,6 21 11 - - S 1016,6 16 -
30.03.2020 10:00:00 11,1 -1,1 9 5 - - SW 1016,8 16 -
30.03.2020 09:00:00 8,9 -1,7 15 8 - - WSW 1017,3 16 -
30.03.2020 08:00:00 6,1 -2,2 11 6 - - SW 1017,7 16 -
30.03.2020 07:00:00 1,7 -2,8 5 3 - - NNE 1017,9 16 -
30.03.2020 06:00:00 1,7 -3,9 11 6 - - WSW 1017,2 16 -
30.03.2020 05:00:00 1,7 -3,9 0 0 - - N 1017,2 16 -
30.03.2020 04:00:00 3,3 -3,9 5 3 - - WSW 1017,0 16 -
30.03.2020 03:00:00 6,1 -3,9 22 12 - - SW 1016,7 16 -
30.03.2020 02:00:00 5,6 -2,8 16 9 - - SSE 1016,5 16 -
30.03.2020 01:00:00 4,4 -2,8 15 8 - - S 1016,9 16 -
30.03.2020 00:00:00 5,0 -2,8 0 0 - - N 1017,2 16 -
29.03.2020 23:00:00 5,0 -1,7 15 8 - - S 1017,5 16 -
29.03.2020 22:00:00 6,1 -2,2 21 11 - - SSE 1017,9 16 -
29.03.2020 21:00:00 5,0 -1,7 18 10 - - SE 1018,3 16 -
29.03.2020 20:00:00 5,6 -1,1 21 11 - - SSE 1018,4 16 -
29.03.2020 19:00:00 9,4 -1,1 15 8 - - SSE 1017,9 16 -
29.03.2020 18:00:00 13,3 -3,9 16 9 - - S 1017,1 16 -
29.03.2020 17:00:00 13,9 -4,4 8 4 - - - 1016,8 16 -
29.03.2020 16:00:00 13,9 -3,9 13 7 - - S 1017,0 16 -
29.03.2020 15:00:00 13,3 -3,3 13 7 - - S 1017,3 16 -
29.03.2020 14:00:00 12,2 -6,1 9 5 - - - 1017,9 16 -
29.03.2020 13:00:00 13,3 -6,1 16 9 - - WNW 1017,9 16 -
29.03.2020 12:00:00 12,2 -6,7 13 7 - - NW 1018,5 16 -
29.03.2020 11:00:00 10,6 -2,8 16 9 - - W 1019,0 16 -
29.03.2020 10:00:00 7,2 -0,6 16 9 - - WSW 1019,4 16 -
29.03.2020 09:00:00 3,9 -2,2 13 7 - - SW 1019,7 16 -
29.03.2020 08:00:00 0,0 -3,3 11 6 - - SW 1019,7 16 -
29.03.2020 07:00:00 -2,2 -5,0 16 9 - - SSW 1018,8 16 -
29.03.2020 06:00:00 -2,8 -5,6 9 5 - - WSW 1018,2 16 -
29.03.2020 05:00:00 -2,2 -4,4 0 0 - - N 1017,2 16 -
29.03.2020 04:00:00 -1,7 -4,4 13 7 - - WSW 1016,6 16 -
29.03.2020 03:00:00 -1,7 -4,4 13 7 - - W 1016,3 16 -
29.03.2020 02:00:00 -1,1 -4,4 11 6 - - W 1016,5 16 -
29.03.2020 01:00:00 0,6 -3,9 15 8 - - W 1016,1 16 -
29.03.2020 00:00:00 0,0 -3,9 15 8 - - WSW 1016,3 16 -
28.03.2020 23:00:00 0,6 -3,9 21 11 - - WSW 1016,0 16 -
28.03.2020 22:00:00 1,7 -4,4 13 7 - - W 1015,6 16 -
28.03.2020 21:00:00 3,9 -4,4 16 9 - - NW 1015,2 16 -
28.03.2020 20:00:00 5,0 -4,4 16 9 - - NW 1014,1 16 -
28.03.2020 19:00:00 8,9 -4,4 21 11 - - NW 1012,9 16 -
28.03.2020 18:00:00 11,1 -5,6 31 17 - - NW 1011,8 16 -
28.03.2020 17:00:00 11,7 -3,9 16 9 - - NNW 1011,2 16 -

tt = temperature
td = dewpoint
ff = wind speed
fx = gusts
dd = wind direction
ppp = reduced air pressure
vv = visibility
rr = precipitation

Next stations